Stanley, ID

10:07 PM MDT on March 27, 2017 (GMT -0600)
Stanley

Weather History for KSNT - March, 2014

Change the Weather History Date:

Monday, March 17, 2014

  Actual Average Record
Temperature  
Mean Temperature 31 °F 27 °F  
Max Temperature 47 °F 42 °F 58 °F (2007)
Min Temperature 14 °F 13 °F -22 °F (1917)
Degree Days  
Heating Degree Days 34 38  
Month to date heating degree days 588 677  
Since 1 July heating degree days 7756 8211  
Cooling Degree Days 0 0  
Month to date cooling degree days 0 0  
Year to date cooling degree days 0 0  
Moisture  
Dew Point 15 °F    
Average Humidity 64    
Maximum Humidity 100    
Minimum Humidity 27    
Precipitation  
Precipitation 0.15 in 0.06 in 0.56 in (1922)
Month to date precipitation 1.98 0.87  
Year to date precipitation 8.52 4.18  
Sea Level Pressure  
Sea Level Pressure 29.69 in    
Wind  
Wind Speed 9 mph (NW)    
Max Wind Speed 22 mph    
Max Gust Speed 39 mph    
T = Trace of Precipitation, MM = Missing Value Source: NWS Daily Summary

Daily Weather History Graph

Daily Weather History Graph

Search for Another Location

Airport or City:

Trip Planner

Search our weather history database for the weather conditions in past years. The results will help you decide how hot, cold, wet, or windy it might be!

Date:

Astronomy

Mar. 17, 2014 Rise Set
Actual Time 7:48 AM MDT 7:48 PM MDT
Civil Twilight 7:19 AM MDT 8:17 PM MDT
Nautical Twilight 6:45 AM MDT 8:51 PM MDT
Astronomical Twilight 6:11 AM MDT 9:25 PM MDT
Moon 9:13 PM MDT (3/17) 8:03 AM MDT (3/17)
Length of Visible Light 12h 58m
Length of Day
12h 00m
Full, 99% of the Moon is Illuminated
Mar 17
Full
Mar 23
Last Quarter
Mar 30
New
Apr 7
First Quarter
Apr 15
Full

Hourly Weather History & Observations

Time (MDT) Temp. Windchill Dew Point Humidity Pressure Visibility Wind Dir Wind Speed Gust Speed Precip Events Conditions
12:51 AM 42.1 °F 37.7 °F 19.0 °F 40% 29.66 in - SSE 6.9 mph - N/A   Unknown
1:51 AM 41.0 °F 37.1 °F 19.0 °F 41% 29.58 in - SE 5.8 mph - N/A   Unknown
2:51 AM 45.0 °F 42.6 °F 15.1 °F 30% 29.53 in - Variable 4.6 mph 17.3 mph N/A   Unknown
3:51 AM 44.1 °F 39.0 °F 12.9 °F 28% 29.48 in - SSW 9.2 mph - N/A   Unknown
4:51 AM 39.9 °F 33.4 °F 17.1 °F 40% 29.46 in - NW 10.4 mph 25.3 mph N/A   Unknown
5:51 AM 33.1 °F 28.7 °F 27.0 °F 78% 29.48 in - WSW 4.6 mph - N/A   Unknown
6:51 AM 30.9 °F 26.2 °F 30.0 °F 96% 29.45 in - East 4.6 mph - 0.06 in   Unknown
7:51 AM 30.0 °F 26.5 °F 28.0 °F 92% 29.44 in - East 3.5 mph - 0.05 in   Unknown
8:51 AM 28.9 °F 19.2 °F 23.0 °F 78% 29.49 in - NW 11.5 mph 19.6 mph 0.02 in   Unknown
9:51 AM 26.1 °F 15.6 °F 21.0 °F 81% 29.59 in - NNW 11.5 mph 20.7 mph 0.02 in   Unknown
10:51 AM 26.1 °F 15.0 °F 17.1 °F 69% 29.61 in - North 12.7 mph 20.7 mph N/A   Unknown
11:51 AM 24.1 °F 13.7 °F 21.0 °F 88% 29.66 in - North 10.4 mph 17.3 mph N/A   Unknown
12:51 PM 27.0 °F 16.1 °F 18.0 °F 69% 29.66 in - NNW 12.7 mph 28.8 mph N/A   Unknown
1:51 PM 28.0 °F 16.5 °F 15.1 °F 58% 29.70 in - NW 15.0 mph 29.9 mph N/A   Unknown
2:51 PM 28.9 °F 17.7 °F 12.9 °F 51% 29.69 in - NNW 15.0 mph 26.5 mph N/A   Unknown
3:51 PM 30.9 °F 20.7 °F 12.0 °F 46% 29.71 in - NW 13.8 mph 31.1 mph N/A   Unknown
4:51 PM 28.9 °F 18.6 °F 12.9 °F 51% 29.78 in - NW 12.7 mph 26.5 mph N/A   Unknown
5:51 PM 27.0 °F 15.2 °F 9.0 °F 47% 29.84 in - NW 15.0 mph 27.6 mph N/A   Unknown
6:51 PM 26.1 °F 14.0 °F 8.1 °F 47% 29.87 in - NW 15.0 mph 24.2 mph N/A   Unknown
7:51 PM 24.1 °F 15.2 °F 7.0 °F 48% 29.91 in - NW 8.1 mph - N/A   Unknown
8:51 PM 23.0 °F 14.7 °F 6.1 °F 48% 29.95 in - NW 6.9 mph - N/A   Unknown
9:51 PM 23.0 °F 11.7 °F 6.1 °F 48% 29.98 in - WNW 11.5 mph 17.3 mph N/A   Unknown
10:51 PM 21.9 °F 12.5 °F 7.0 °F 53% 30.00 in - NW 8.1 mph - N/A   Unknown
11:51 PM 18.0 °F 12.7 °F 7.0 °F 62% 30.04 in - WNW 3.5 mph - N/A   Unknown